Погода в Канадее

Россия / Ульяновская область     53°10′00″N   47°31′27″E
темп.,
°C
ветер,
м/с
пор.,
м/с
влажн.,
%
обл.,
%
осадки,
мм/ч
давл.,
гПа
погр.,
м
28 января, чт
чт2801:00−4ююв61294100 0.0 1021505
04:00−5ююв51194100 0.0 1019383
07:00−8юв51093100 0.0 1018281
10:00−8юв51094100 0.0 1017323
13:00−7юв5994100 0.0 1016384
16:00−6юв5993100 0.1 1015436
19:00−8юв41096100 0.0 1015357
22:00−8ююв41096100 0.1 1014409
29 января, пт
пт2901:00−6юв3796100 0.1 1013300
04:00−6юв3997100 0.2 1012375
07:00−4юв4896100 0.1 1011367
10:00−4юв3896100 0.1 1011385
13:00−2юв4795100 0.1 1009428
16:00−2ююв3697100 0.4 1009325
19:00−3ююв3597100 1.2 1009192
22:00−3ю3697100 1.8 1008181
30 января, сб
сб3001:00−5ююз3494100 0.0 100877
04:00−7ю379483 0.0 1008111
07:00−6ю5119567 0.0 1007269
10:00−4ю7149583 0.0 1005461
13:000ю91695100 0.3 10041134
16:000юз71290100 0.9 10051103
19:00−5юз498925 0.0 1007172
22:00−6ююз369263 0.0 1010102
31 января, вс
вс3101:00−7ю3493100 0.0 101093
04:00−4ююв3997100 0.2 1009263
07:00+1ю61398100 0.2 1008682
10:00−2ю71587100 0.2 1008510
13:00−1ю91880100 0.0 1007727
16:00−2ю91878100 0.0 1004878
19:00−2ю111991100 0.6 1000856
22:00+1ююз111898100 1.5 999992
1 февраля, пн
пн101:00−3юз7168784 0.4 1002835
04:00−5зюз8168689 0.4 1007751
07:00−7зюз7148994 0.0 1011551
10:00−7з6128995 0.0 1015500
13:00−5з5988100 0.0 1018457
16:00−5юз369193 0.0 1019329
19:00−7ю2393100 0.0 102056
22:00−5ююв4991100 0.1 1019317